Retour au catalogue

OPS 1294

DMSP 5D-2 F7

ActifMétéoSSO
NORAD 14506·PAYLOAD·🇺🇸 United States

Lancé Nov 18, 1983 depuis Vandenberg Space Force Base

Loading…

Prochains Passages (prochaines 24 heures)

TLE

FraisSource: Space-Track

Époque: Sep 14, 2026, 09:57 UTC

1 14506U 83113A   26257.41458590  .00000148  00000-0  74041-4 0  9993
2 14506  98.4395  39.9581 0010126 333.3412  45.1453 14.29864576228242

Suivez OPS 1294 en temps réel avec AllMySat

Download on the App Store